Satellite: MET-3/5
Catalog number: 21655
Epoch time:      06025.84634494
Element set:      21
Inclination:      082.5564 deg
RA of node:       001.3556 deg
Eccentricity:    0.0014014
Arg of perigee:   041.5922 deg
Mean anomaly:     318.6241 deg
Mean motion:   13.17004623 rev/day
Decay rate:        5.1e-07 rev/day^2
Epoch rev:           69462
Checksum:              264

Satellite: MET-2/21
Catalog number: 22782
Epoch time:      06025.57014204
Element set:     413
Inclination:      082.5489 deg
RA of node:       084.5981 deg
Eccentricity:    0.0021536
Arg of perigee:   216.1066 deg
Mean anomaly:     143.8654 deg
Mean motion:   13.83600400 rev/day
Decay rate:        9.1e-07 rev/day^2
Epoch rev:           62632
Checksum:              276

Satellite: OKEAN-4
Catalog number: 23317
Epoch time:      06026.73245454
Element set:     848
Inclination:      082.5372 deg
RA of node:       048.9348 deg
Eccentricity:    0.0023751
Arg of perigee:   118.5050 deg
Mean anomaly:     241.8568 deg
Mean motion:   14.82301047 rev/day
Decay rate:       2.12e-06 rev/day^2
Epoch rev:           60902
Checksum:              285

Satellite: NOAA-14
Catalog number: 23455
Epoch time:      06026.17667333
Element set:     970
Inclination:      099.0610 deg
RA of node:       082.8008 deg
Eccentricity:    0.0010032
Arg of perigee:   092.3110 deg
Mean anomaly:     267.9196 deg
Mean motion:   14.13630821 rev/day
Decay rate:       -8.8e-07 rev/day^2
Epoch rev:           57100
Checksum:              273

Satellite: SICH-1
Catalog number: 23657
Epoch time:      06025.75303852
Element set:    0654
Inclination:      082.5287 deg
RA of node:       190.7110 deg
Eccentricity:    0.0025492
Arg of perigee:   110.1225 deg
Mean anomaly:     250.2711 deg
Mean motion:   14.81303817 rev/day
Decay rate:       2.37e-06 rev/day^2
Epoch rev:           56090
Checksum:              266

Satellite: NOAA-15
Catalog number: 25338
Epoch time:      06026.84840822
Element set:     374
Inclination:      098.5160 deg
RA of node:       033.3893 deg
Eccentricity:    0.0011457
Arg of perigee:   067.8057 deg
Mean anomaly:     292.4325 deg
Mean motion:   14.24560325 rev/day
Decay rate:       -2.1e-07 rev/day^2
Epoch rev:           40059
Checksum:              292

Satellite: RESURS
Catalog number: 25394
Epoch time:      06025.86761348
Element set:    0320
Inclination:      098.5161 deg
RA of node:       093.4404 deg
Eccentricity:    0.0000879
Arg of perigee:   202.6496 deg
Mean anomaly:     157.4644 deg
Mean motion:   14.24094601 rev/day
Decay rate:       -4.0e-07 rev/day^2
Epoch rev:           39214
Checksum:              287

Satellite: FENGYUN1
Catalog number: 25730
Epoch time:      06025.60057086
Element set:    0637
Inclination:      098.6177 deg
RA of node:       023.5998 deg
Eccentricity:    0.0014338
Arg of perigee:   184.1392 deg
Mean anomaly:     175.9652 deg
Mean motion:   14.11807171 rev/day
Decay rate:       1.31e-06 rev/day^2
Epoch rev:           34589
Checksum:              309

Satellite: OKEAN-0
Catalog number: 25860
Epoch time:      06025.65992159
Element set:    0652
Inclination:      097.7424 deg
RA of node:       046.5774 deg
Eccentricity:    0.0000705
Arg of perigee:   113.6151 deg
Mean anomaly:     246.5124 deg
Mean motion:   14.73332982 rev/day
Decay rate:        7.9e-07 rev/day^2
Epoch rev:           35076
Checksum:              303

Satellite: NOAA-16
Catalog number: 26536
Epoch time:      06026.45702611
Element set:     724
Inclination:      099.0471 deg
RA of node:       351.5533 deg
Eccentricity:    0.0010951
Arg of perigee:   155.7193 deg
Mean anomaly:     204.4515 deg
Mean motion:   14.12310808 rev/day
Decay rate:       2.57e-06 rev/day^2
Epoch rev:           27557
Checksum:              283

Satellite: NOAA-17
Catalog number: 27453
Epoch time:      06026.14316138
Element set:     747
Inclination:      098.6382 deg
RA of node:       101.0284 deg
Eccentricity:    0.0012520
Arg of perigee:   126.4340 deg
Mean anomaly:     233.7994 deg
Mean motion:   14.23745290 rev/day
Decay rate:       1.20e-06 rev/day^2
Epoch rev:           18656
Checksum:              283

Satellite: NOAA-18
Catalog number: 28654
Epoch time:      06026.16648376
Element set:     337
Inclination:      098.7729 deg
RA of node:       332.5991 deg
Eccentricity:    0.0013545
Arg of perigee:   264.5865 deg
Mean anomaly:     095.3760 deg
Mean motion:   14.10925691 rev/day
Decay rate:       1.36e-06 rev/day^2
Epoch rev:            3535
Checksum:              334

/EX
SB KEPS @ AMSAT  $ORB06026.M
Orbital Elements  06026.MISC

HR AMSAT ORBITAL ELEMENTS FOR MANNED AND MISCELLANEOUS SATELLITES
FROM WA5QGD FORT WORTH,TX January 26, 2006
Send SUBSCRIBE KEPS/UNSUBSCRIBE KEPS to majordomo@amsat.org only
BID: ORB06026.M
TO ALL RADIO AMATEURS BT

Satellite: HUBBLE
Catalog number: 20580
Epoch time:      06025.97526583
Element set:    0534
Inclination:      028.4691 deg
RA of node:       256.9043 deg
Eccentricity:    0.0003694
Arg of perigee:   119.0770 deg
Mean anomaly:     241.0188 deg
Mean motion:   14.99952975 rev/day
Decay rate:       4.82e-06 rev/day^2
Epoch rev:           66372
Checksum:              322

Satellite: UARS
Catalog number: 21701
Epoch time:      06025.89669387
Element set:    0673
Inclination:      056.9824 deg
RA of node:       344.9388 deg
Eccentricity:    0.0102873
Arg of perigee:   298.1860 deg
Mean anomaly:     060.8801 deg
Mean motion:   15.41940919 rev/day
Decay rate:      5.989e-05 rev/day^2
Epoch rev:           78734
Checksum:              358

